WHOI SSSG dsLogCsv
DATE_GMT, TIME_GMT, PHINS_HEADING, HDT, PHTRO_ROLL, PHTRO_ROLL_FRAME, PHTRO_PITCH, PHTRO_PITCH_FRAME, PHLIN_SURGE_LIN, PHLIN_SWAY_LIN, PHLIN_HEAVE_LIN, PHSPD_SURGE_SPD, PHSPD_SWAY_SPD, PHSPD_HEAVE_SPD
2015/11/23, 00:00:09.333, 352.7210, 352.720, 0.4500, T, 2.3700, M, 0.7700, -0.2190, -0.2190, 0.2170, -0.2810, 0.4740
2015/11/23, 00:00:19.333, 352.4080, 352.407, 1.9000, T, 5.7600, M, 0.8170, 0.0540, 0.0540, -0.2550, -0.1980, 1.1590
2015/11/23, 00:00:29.333, 352.3900, 352.393, 1.3300, T, 1.9100, M, 0.2000, -0.0740, -0.0740, -0.5450, -0.5280, 0.4110
2015/11/23, 00:00:39.333, 353.0660, 353.066, 0.3200, B, 1.8900, M, 0.6660, 0.0130, 0.0130, -0.4650, -0.2990, -0.9520
2015/11/23, 00:00:49.333, 352.5370, 352.536, 1.8000, T, 2.1500, M, -0.0060, 0.1000, 0.1000, -0.7340, -0.1340, -0.9800
2015/11/23, 00:00:59.333, 351.9500, 351.950, 1.0300, T, 0.9900, M, -0.9050, -0.0480, -0.0480, -1.0620, 0.0150, -1.0500
2015/11/23, 00:01:09.333, 350.2610, 350.258, 0.6200, T, 0.4000, M, -0.8620, -0.0120, -0.0120, -0.5440, 0.1820, -0.5630
2015/11/23, 00:01:19.333, 350.2250, 350.225, 0.3800, T, 1.4600, M, -0.3370, -0.3590, -0.3590, -0.3310, -0.0060, -0.9760
2015/11/23, 00:01:29.333, 349.9860, 349.984, 0.9400, B, 1.6200, M, 0.4300, -0.0870, -0.0870, 0.4230, 0.2530, 0.3710
2015/11/23, 00:01:39.333, 348.9660, 348.966, 0.5000, T, 2.0700, M, 0.9020, 0.1050, 0.1050, 0.2010, -0.2600, 0.5370
2015/11/23, 00:01:49.333, 349.3080, 349.311, 0.0800, T, 2.1900, M, 0.6520, 0.1430, 0.1430, -0.1020, -0.2090, -0.2550
2015/11/23, 00:01:59.333, 350.6310, 350.631, 0.3300, T, 0.4000, M, -0.0360, 0.1300, 0.1300, -0.0940, -0.1010, -0.6360
2015/11/23, 00:02:09.333, 351.1900, 351.189, 1.2400, T, 0.5300, P, -0.5450, 0.1030, 0.1030, -0.2030, -0.0120, -0.0950
2015/11/23, 00:02:19.334, 351.4000, 351.401, 0.9700, B, 1.2700, M, -0.5370, 0.0010, 0.0010, -0.2930, 0.0530, -0.1740
2015/11/23, 00:02:29.334, 351.6670, 351.667, 1.6400, B, 0.7400, P, -0.6130, -0.1560, -0.1560, -0.2540, 0.3640, -0.2150
2015/11/23, 00:02:39.334, 351.1920, 351.191, 1.0800, B, 0.0600, M, -0.6040, 0.2260, 0.2260, -0.5320, 0.1790, -0.8860
2015/11/23, 00:02:49.334, 351.7040, 351.705, 0.9200, B, 0.8700, P, -0.5530, -0.2190, -0.2190, 0.3080, 0.1770, 0.1890
2015/11/23, 00:02:59.334, 352.4530, 352.453, 0.3400, T, 0.4600, M, 0.7210, 0.0860, 0.0860, 0.9320, -0.2450, 1.3850
2015/11/23, 00:03:09.334, 351.1990, 351.199, 0.9800, T, 2.2700, M, 1.0780, 0.5430, 0.5430, 0.0960, -0.2970, 0.0450
2015/11/23, 00:03:19.334, 350.5740, 350.572, 1.1200, T, 3.3700, M, 0.8350, 0.0890, 0.0890, -0.1170, -0.2230, 0.0680
2015/11/23, 00:03:29.334, 351.1250, 351.126, 1.4900, T, 0.7700, M, 0.2170, -0.3410, -0.3410, 0.0110, -0.3900, 0.6660
2015/11/23, 00:03:39.334, 351.1690, 351.169, 1.3700, T, 2.7000, M, 0.0610, -0.4810, -0.4810, -0.2380, -0.1000, -0.7110
2015/11/23, 00:03:49.334, 350.7350, 350.735, 0.3300, T, 1.1100, M, -0.1680, -0.4070, -0.4070, 0.2860, 0.0540, -0.3780
2015/11/23, 00:03:59.334, 351.2260, 351.222, 0.3200, T, 2.7400, M, 0.7910, -0.1740, -0.1740, 0.3130, 0.1590, 0.2030
2015/11/23, 00:04:09.334, 351.0400, 351.041, 2.4900, T, 3.6600, M, 1.0360, -0.0430, -0.0430, -0.0230, 0.1020, -0.2210
2015/11/23, 00:04:19.334, 351.6180, 351.619, 0.3400, T, 2.0900, M, 0.7370, -0.2270, -0.2270, 0.1250, 0.1450, -0.0950
2015/11/23, 00:04:29.334, 352.4460, 352.444, 0.2300, B, 0.6400, P, 0.3090, -0.3280, -0.3280, 0.5080, 0.2100, -1.0430
2015/11/23, 00:04:39.334, 352.2220, 352.221, 2.7000, T, 2.8600, M, 0.6760, -0.1760, -0.1760, 0.1540, -0.1900, -0.2530
2015/11/23, 00:04:49.334, 352.5110, 352.507, 1.9100, T, 2.0100, M, 0.7480, -0.3460, -0.3460, 0.5130, -0.0650, 0.6260
2015/11/23, 00:04:59.334, 351.5780, 351.582, 0.6600, T, 3.4600, M, 0.7370, -0.3500, -0.3500, 0.0040, -0.2930, 0.4800
2015/11/23, 00:05:09.335, 352.9940, 352.994, 1.5100, B, 1.2700, M, -0.3000, -0.1010, -0.1010, -0.2820, 0.2770, -1.2160
2015/11/23, 00:05:19.335, 352.0610, 352.058, 0.3200, T, 3.0600, P, -1.0150, 0.4330, 0.4330, 0.6900, 0.1390, -0.5410
2015/11/23, 00:05:29.335, 351.4730, 351.476, 0.1100, B, 0.2800, P, 0.0320, 0.4200, 0.4200, 0.5130, -0.1970, 0.2270
2015/11/23, 00:05:39.335, 350.5830, 350.583, 0.8400, T, 0.9400, M, -0.3030, 0.3570, 0.3570, -0.5070, -0.2930, -0.4190
2015/11/23, 00:05:49.335, 350.8580, 350.859, 0.6500, B, 0.1900, M, -0.8970, -0.1960, -0.1960, -0.3340, -0.1890, 0.2910
2015/11/23, 00:05:59.335, 350.8390, 350.842, 1.2600, T, 1.2000, P, -1.3080, 0.0940, 0.0940, -0.4010, -0.3770, -0.8970
2015/11/23, 00:06:09.335, 350.4150, 350.415, 0.4700, B, 0.3300, M, -0.5400, 0.1720, 0.1720, -0.1100, 0.0990, -0.6660
2015/11/23, 00:06:19.335, 350.4770, 350.477, 0.0900, T, 0.1400, M, -0.1950, 0.0420, 0.0420, -0.1140, -0.0330, -0.9200
2015/11/23, 00:06:29.335, 349.4380, 349.436, 0.2200, T, 1.1100, M, 0.0110, 0.4390, 0.4390, 0.4410, 0.2530, 0.8050
2015/11/23, 00:06:39.335, 348.9600, 348.961, 0.1000, B, 1.0200, M, 0.5120, 0.3340, 0.3340, 0.2680, -0.1700, 0.0580
2015/11/23, 00:06:49.335, 348.7350, 348.736, 1.1500, B, 3.8700, M, 0.8770, 0.1160, 0.1160, -0.1220, 0.0710, -0.0450
2015/11/23, 00:06:59.335, 348.8980, 348.898, 0.7900, B, 2.2600, M, 0.2900, -0.1250, -0.1250, -0.4090, -0.1110, 0.0710
2015/11/23, 00:07:09.335, 350.5480, 350.550, 1.4900, B, 1.5800, M, 0.2550, -0.0790, -0.0790, -0.4870, -0.1540, -0.1150
2015/11/23, 00:07:19.335, 350.0630, 350.062, 1.2900, T, 1.7200, M, 0.2300, 0.2630, 0.2630, -0.5190, -0.0730, -0.4600
2015/11/23, 00:07:29.335, 349.4370, 349.437, 0.6000, T, 0.9200, M, 0.0810, 0.5200, 0.5200, 0.0000, -0.0600, -0.4600
2015/11/23, 00:07:39.335, 349.8710, 349.872, 1.5700, T, 2.1000, M, 0.5480, 0.2500, 0.2500, 0.6880, -0.5750, 1.6110
2015/11/23, 00:07:49.335, 353.0960, 353.097, 0.0800, T, 4.4200, M, 0.4310, 0.2150, 0.2150, -0.3010, -0.1110, 0.2410
2015/11/23, 00:07:59.335, 352.4400, 352.435, 2.2500, T, 0.8100, P, -0.0920, 0.6780, 0.6780, 0.0070, -0.0840, 0.0130
2015/11/23, 00:08:09.336, 351.3880, 351.385, 2.9300, T, 2.0000, P, 0.4000, 0.5410, 0.5410, 0.8570, -0.0650, 0.0080
2015/11/23, 00:08:19.336, 351.9070, 351.905, 1.4200, T, 1.3100, M, 0.4400, 0.2140, 0.2140, 0.7850, 0.2190, 1.1010
2015/11/23, 00:08:29.336, 351.2340, 351.235, 0.7200, B, 1.6400, P, -0.8260, 0.1530, 0.1530, 0.3880, 0.0590, -0.2700
2015/11/23, 00:08:39.336, 350.4200, 350.419, 0.3400, B, 1.3200, P, -0.6420, -0.2040, -0.2040, 0.7870, 0.3080, 0.2270
2015/11/23, 00:08:49.336, 351.8820, 351.884, 0.2700, B, 2.9200, M, 0.5960, -0.5840, -0.5840, 0.3010, 0.0810, 0.5320
2015/11/23, 00:08:59.336, 351.2360, 351.235, 0.2500, B, 2.9500, M, 0.7130, -0.2060, -0.2060, -0.3160, -0.0760, -0.5910
2015/11/23, 00:09:09.336, 351.3150, 351.315, 1.1700, T, 1.6700, M, 0.2750, -0.3050, -0.3050, -0.0640, -0.1370, -0.4540
2015/11/23, 00:09:19.336, 351.3120, 351.313, 1.9200, T, 0.0400, P, 0.0160, -0.1260, -0.1260, 0.2540, -0.3420, -0.0470
2015/11/23, 00:09:29.336, 349.8690, 349.868, 0.2900, T, 2.7400, M, -0.1570, 0.5450, 0.5450, -0.2120, 0.0800, -0.0610
2015/11/23, 00:09:39.336, 349.5740, 349.570, 0.6800, B, 2.2900, P, -1.4970, 0.2900, 0.2900, -0.0390, 0.1090, -0.4870
2015/11/23, 00:09:49.336, 348.8810, 348.882, 1.0100, T, 4.3900, P, -1.6910, -0.1560, -0.1560, 0.2750, -0.2490, -0.6960
2015/11/23, 00:09:59.336, 348.7170, 348.716, 0.0600, B, 1.6300, P, -0.5050, -0.2780, -0.2780, 0.6270, 0.1810, 0.2820
2015/11/23, 00:10:09.336, 349.4490, 349.447, 0.0300, B, 2.1500, M, 0.5570, -0.2220, -0.2220, 0.2330, -0.0180, -0.0160
2015/11/23, 00:10:19.336, 350.3750, 350.372, 2.6100, T, 5.1000, M, 0.8110, -0.4500, -0.4500, -0.2540, -0.2470, 0.5550
2015/11/23, 00:10:29.336, 351.9230, 351.925, 0.0500, T, 4.1500, M, 1.1330, -0.0650, -0.0650, -0.5780, -0.1320, 0.0390
2015/11/23, 00:10:39.336, 351.5890, 351.589, 0.3300, B, 3.6300, M, 1.5120, 0.1690, 0.1690, -0.5520, 0.1750, 0.1470
2015/11/23, 00:10:49.336, 351.5760, 351.576, 1.5500, B, 2.4100, M, 0.9660, 0.0900, 0.0900, -0.2640, -0.0180, -0.5180
2015/11/23, 00:10:59.337, 350.8110, 350.812, 0.9600, T, 2.7100, M, 0.2610, -0.1280, -0.1280, -0.2650, -0.3680, 0.0480
2015/11/23, 00:11:09.337, 350.2230, 350.223, 1.0800, T, 0.3200, M, -0.2920, 0.0560, 0.0560, -0.0730, -0.0600, -0.2990
2015/11/23, 00:11:19.337, 350.7990, 350.799, 0.5300, T, 1.0100, M, 0.1300, -0.0130, -0.0130, 0.2950, -0.0550, 0.4600
2015/11/23, 00:11:29.337, 350.4250, 350.424, 0.2800, T, 1.0200, M, -0.0350, 0.5930, 0.5930, 0.1470, 0.3910, 0.0150
2015/11/23, 00:11:39.337, 349.9920, 349.992, 1.2200, B, 0.0900, M, -0.5110, 0.6370, 0.6370, -0.0250, 0.2010, -0.0170
2015/11/23, 00:11:49.337, 350.7570, 350.759, 1.1400, B, 0.0200, M, -0.6880, 0.1400, 0.1400, -0.2140, 0.1040, -0.5710
2015/11/23, 00:11:59.337, 352.3930, 352.394, 1.3200, B, 2.1900, P, -0.7950, -0.2580, -0.2580, 0.4300, -0.1510, -0.2670
2015/11/23, 00:12:09.337, 351.5880, 351.588, 0.9100, B, 0.6100, M, 0.2920, -0.2560, -0.2560, 0.4460, 0.1030, 0.5830
2015/11/23, 00:12:19.337, 352.2160, 352.222, 3.1200, B, 3.2100, M, 0.9790, 0.0710, 0.0710, 0.2370, -0.2580, 0.9200
2015/11/23, 00:12:29.337, 351.5610, 351.561, 2.8000, B, 4.1900, M, 0.8750, 0.3520, 0.3520, -0.1980, 0.0120, 0.3650
2015/11/23, 00:12:39.337, 350.1300, 350.131, 1.6100, B, 1.9300, M, 0.8020, 0.7640, 0.7640, 0.1810, -0.1160, 0.4140
2015/11/23, 00:12:49.337, 349.6640, 349.665, 1.4900, B, 2.5200, M, 0.9250, 0.4700, 0.4700, 0.1750, -0.1250, 1.0180
2015/11/23, 00:12:59.337, 349.4850, 349.488, 0.4100, B, 3.9000, M, 1.1170, 0.3450, 0.3450, -0.1640, -0.2470, 0.3150
2015/11/23, 00:13:09.337, 349.0330, 349.034, 1.4400, T, 3.8100, M, 0.8650, 0.7010, 0.7010, -0.5960, -0.3800, -0.4650
2015/11/23, 00:13:19.337, 348.9470, 348.947, 2.2500, T, 4.9500, M, 1.1380, 0.1150, 0.1150, -0.1180, -0.4090, 1.0560
2015/11/23, 00:13:29.337, 349.3610, 349.363, 0.7400, T, 2.6300, M, 1.2180, -0.0040, -0.0040, 0.0310, -0.0760, 0.8500
2015/11/23, 00:13:39.337, 349.8780, 349.881, 2.3900, B, 1.8500, M, 0.8950, 0.0150, 0.0150, 0.2380, -0.0280, 0.8650
2015/11/23, 00:13:49.337, 350.7510, 350.752, 0.0800, B, 3.8700, M, 0.5680, 0.0720, 0.0720, -0.1130, 0.0660, 0.9540
2015/11/23, 00:13:59.338, 350.7290, 350.726, 0.1700, B, 1.7400, M, -0.1820, 0.2660, 0.2660, -0.1950, 0.3720, 0.8410
2015/11/23, 00:14:09.338, 350.2400, 350.239, 1.0500, B, 0.9000, M, 0.0840, 0.2300, 0.2300, -0.0940, 0.1800, 0.5650
2015/11/23, 00:14:19.338, 348.9750, 348.975, 0.4200, T, 2.4300, M, 0.7620, 0.4930, 0.4930, -0.3850, -0.1590, -0.2390
2015/11/23, 00:14:29.338, 349.7260, 349.726, 1.9100, T, 3.0500, M, 1.0080, -0.3270, -0.3270, -0.2500, -0.3500, 0.3530
2015/11/23, 00:14:39.338, 350.2260, 350.223, 1.7700, T, 3.6900, M, 0.4460, -0.4760, -0.4760, -0.3490, -0.1080, -0.2700
2015/11/23, 00:14:49.338, 350.1470, 350.148, 3.0300, T, 2.7300, P, -0.7750, -0.3980, -0.3980, 0.5650, -0.3600, 0.3350
2015/11/23, 00:14:59.338, 351.4420, 351.445, 0.9300, T, 1.6000, M, -0.2160, -0.8380, -0.8380, 0.4470, -0.5820, 1.2480
2015/11/23, 00:15:09.338, 353.6620, 353.665, 1.1100, T, 0.0100, P, -0.5720, -0.7900, -0.7900, 0.1450, -0.2850, 0.9610
2015/11/23, 00:15:19.338, 353.3670, 353.364, 0.3200, T, 1.2600, P, -0.9350, 0.1310, 0.1310, -0.1580, 0.2370, 0.0230
2015/11/23, 00:15:29.338, 353.2300, 353.229, 0.0500, B, 0.7200, P, -1.2300, -0.0030, -0.0030, -0.3970, 0.0950, -0.1020
2015/11/23, 00:15:39.338, 353.2170, 353.216, 0.3300, B, 3.5100, P, -2.0940, 0.0530, 0.0530, -0.0520, 0.1100, -0.4340
2015/11/23, 00:15:49.338, 353.3080, 353.310, 1.0800, B, 0.4100, P, -0.5330, 0.0310, 0.0310, 0.3390, -0.1300, 0.5630
2015/11/23, 00:15:59.338, 353.1190, 353.121, 1.1600, B, 4.6400, M, 1.5640, -0.5360, -0.5360, -0.1560, 0.0580, 0.5190
2015/11/23, 00:16:09.338, 352.7810, 352.781, 0.8000, B, 5.1700, M, 2.6370, -0.5420, -0.5420, -0.2870, 0.0420, 0.1360
2015/11/23, 00:16:19.338, 351.3430, 351.343, 1.1100, B, 6.3900, M, 2.1040, 0.1180, 0.1180, -0.7730, -0.0540, -0.1170
2015/11/23, 00:16:29.338, 350.8670, 350.867, 0.8500, B, 3.1100, M, -0.0810, -0.1830, -0.1830, -1.0650, 0.0120, -1.4640
2015/11/23, 00:16:39.338, 350.2200, 350.221, 0.6200, B, 0.8700, M, -0.3700, 0.3430, 0.3430, -0.1450, -0.2060, -0.9870
2015/11/23, 00:16:49.339, 349.0870, 349.087, 1.4000, B, 2.8600, M, 0.2760, 0.3200, 0.3200, -0.1520, -0.0370, -0.3960
2015/11/23, 00:16:59.339, 349.0720, 349.069, 0.3800, B, 0.1200, P, -0.2950, -0.2860, -0.2860, -0.0700, 0.0210, -0.9290
2015/11/23, 00:17:09.339, 348.8690, 348.868, 0.8800, T, 2.9700, P, -0.6880, -0.0970, -0.0970, 0.5080, 0.1330, -1.0720
2015/11/23, 00:17:19.339, 348.7500, 348.750, 0.2600, T, 0.7500, P, 0.5840, 0.0560, 0.0560, 1.2570, 0.0820, -0.3490
2015/11/23, 00:17:29.339, 348.5570, 348.557, 0.4600, B, 2.9900, M, 1.8620, 0.2570, 0.2570, 1.1360, 0.3010, 1.1970
2015/11/23, 00:17:39.339, 348.9580, 348.958, 1.1200, B, 3.1400, M, 1.3150, 0.4600, 0.4600, 0.3740, 0.2480, 1.1740
2015/11/23, 00:17:49.339, 349.5130, 349.514, 2.7500, B, 2.0100, M, -0.0000, 0.5730, 0.5730, -0.2990, 0.0220, 0.3170
2015/11/23, 00:17:59.339, 351.1430, 351.148, 3.4800, B, 0.6600, M, -0.3220, 0.0640, 0.0640, 0.2910, -0.2760, 0.8970
2015/11/23, 00:18:09.339, 350.2990, 350.300, 3.0800, B, 0.4800, M, -0.2650, 0.0900, 0.0900, -0.1000, 0.0210, 0.3860
2015/11/23, 00:18:19.339, 350.0330, 350.032, 1.8900, B, 3.1300, M, 0.3520, 0.2970, 0.2970, -0.4270, 0.1180, -0.3200
2015/11/23, 00:18:29.339, 349.6050, 349.608, 0.3900, B, 0.0000, P, 0.0550, 0.3820, 0.3820, -0.5320, -0.4730, -0.6630
2015/11/23, 00:18:39.339, 351.0300, 351.033, 1.5200, T, 0.6200, M, -0.1060, -0.2450, -0.2450, -0.3850, -0.5040, 0.1010
2015/11/23, 00:18:49.339, 351.4530, 351.451, 2.2500, T, 1.7900, P, -0.7660, -0.2870, -0.2870, 0.1250, -0.0030, -0.0800
2015/11/23, 00:18:59.339, 351.8990, 351.898, 1.0600, T, 0.7800, M, -0.0550, 0.1480, 0.1480, 0.7220, -0.0660, 0.6640
2015/11/23, 00:19:09.339, 351.8460, 351.847, 1.7600, T, 0.7700, M, -0.1140, 0.0280, 0.0280, 0.4650, -0.1170, 0.0920
2015/11/23, 00:19:19.339, 351.6610, 351.661, 0.1900, T, 0.3800, M, 0.1410, -0.1470, -0.1470, 0.4100, -0.1400, -0.1920
2015/11/23, 00:19:29.339, 351.5630, 351.563, 0.1700, B, 3.3400, M, 0.8130, -0.1310, -0.1310, -0.1640, -0.1840, -0.4560
2015/11/23, 00:19:39.339, 351.8290, 351.830, 0.9400, B, 1.4000, M, 0.1430, -0.1750, -0.1750, -0.5410, 0.0820, -0.6260
2015/11/23, 00:19:49.340, 351.3900, 351.390, 0.4400, B, 1.2700, M, -0.2170, -0.0500, -0.0500, -0.3420, -0.1290, 0.2850
2015/11/23, 00:19:59.340, 351.2410, 351.244, 0.2500, B, 3.1100, M, 0.0840, -0.2260, -0.2260, -0.4070, -0.3510, 0.4560
2015/11/23, 00:20:09.340, 351.6050, 351.605, 0.7700, B, 0.9700, M, 0.3540, -0.6050, -0.6050, -0.0990, -0.1060, 0.3670
2015/11/23, 00:20:19.340, 349.6060, 349.604, 0.2600, B, 3.9500, M, 1.3040, 0.0500, 0.0500, 0.0030, 0.0390, 0.4920
2015/11/23, 00:20:29.340, 349.7940, 349.796, 0.0600, B, 1.5700, M, 1.0120, -0.1810, -0.1810, -0.1440, -0.2960, -0.1680
2015/11/23, 00:20:39.340, 351.5000, 351.503, 0.9000, B, 0.8400, M, 0.3890, -0.3400, -0.3400, 0.0710, -0.2010, 0.0490
2015/11/23, 00:20:49.340, 351.9980, 352.000, 0.5100, T, 1.7800, M, -0.1880, -0.2050, -0.2050, 0.1520, -0.0540, 0.2410
2015/11/23, 00:20:59.340, 352.4230, 352.424, 0.5600, B, 1.4100, P, -0.6310, 0.1380, 0.1380, 0.3890, -0.2780, 0.2970
2015/11/23, 00:21:09.340, 351.2460, 351.244, 1.3500, T, 0.2200, P, -0.3130, 0.2300, 0.2300, 0.1480, 0.0420, -0.1550
2015/11/23, 00:21:19.340, 350.2360, 350.234, 1.0800, B, 0.4800, P, -0.7410, 0.1770, 0.1770, 0.0470, 0.5940, -0.4830
2015/11/23, 00:21:29.340, 350.8580, 350.859, 1.3300, B, 1.5100, M, -0.1960, 0.1260, 0.1260, 0.3780, 0.1890, 0.8810
2015/11/23, 00:21:39.340, 351.1750, 351.174, 1.4600, B, 1.4100, M, -0.0210, -0.1490, -0.1490, 0.0060, 0.3870, 0.6970
2015/11/23, 00:21:49.340, 351.0820, 351.084, 2.5500, B, 2.5600, M, 0.3440, -0.2050, -0.2050, -0.3730, 0.0060, -0.1580
2015/11/23, 00:21:59.340, 352.1880, 352.192, 4.1700, B, 2.0300, M, 0.3270, -0.5280, -0.5280, -0.4180, 0.3340, -0.2590
2015/11/23, 00:22:09.340, 352.7770, 352.777, 1.9300, B, 2.8300, M, 0.3390, -0.5390, -0.5390, -0.6390, 0.0860, -0.8580
2015/11/23, 00:22:19.340, 351.9330, 351.933, 0.8400, T, 3.5800, M, 0.1460, -0.3610, -0.3610, -0.6800, -0.2010, -2.1420
2015/11/23, 00:22:29.340, 350.7740, 350.770, 2.8600, T, 0.4600, M, -0.1280, -0.4720, -0.4720, 0.4160, -0.3790, -0.7510
2015/11/23, 00:22:39.341, 351.6570, 351.656, 5.0800, T, 1.0000, M, 0.9620, -0.6450, -0.6450, 0.4660, -0.2860, -0.5330
2015/11/23, 00:22:49.341, 351.2950, 351.294, 3.0000, T, 1.1100, M, 1.3700, 0.1450, 0.1450, 0.8640, 0.0600, 0.7910
2015/11/23, 00:22:59.341, 350.7080, 350.704, 1.7000, T, 0.6700, M, 0.3910, 0.2660, 0.2660, 0.3390, 0.1500, 0.1190
2015/11/23, 00:23:09.341, 349.9890, 349.987, 1.2800, T, 0.5000, M, -0.0780, 0.0160, 0.0160, 0.6620, -0.0750, 0.5740
2015/11/23, 00:23:19.341, 350.0550, 350.055, 0.8000, T, 2.4400, M, 0.1620, 0.0350, 0.0350, 0.0460, -0.0850, -0.2710
2015/11/23, 00:23:29.341, 349.9010, 349.898, 1.3600, T, 1.8400, M, -0.0480, 0.4060, 0.4060, -0.3410, 0.3970, -0.2140
2015/11/23, 00:23:39.341, 348.3630, 348.368, 0.4400, B, 1.5900, P, -0.4270, 0.8430, 0.8430, 0.1640, -0.2710, -0.3780
2015/11/23, 00:23:49.341, 348.8110, 348.813, 2.3900, B, 3.1800, M, 0.8180, 0.0780, 0.0780, 0.4170, 0.1470, -0.0410
2015/11/23, 00:23:59.341, 350.1830, 350.186, 2.3200, B, 2.3400, M, 1.0570, -0.1080, -0.1080, 0.4830, 0.1140, -0.0510
2015/11/23, 00:24:09.341, 350.2310, 350.228, 0.1600, T, 0.7100, P, 0.5920, -0.2850, -0.2850, 0.9150, 0.2640, 0.3720
2015/11/23, 00:24:19.341, 350.9030, 350.901, 1.0900, B, 1.5100, M, 0.9420, -0.1240, -0.1240, 1.0570, 0.3820, 0.7020
2015/11/23, 00:24:29.341, 351.0980, 351.096, 0.6600, T, 0.1800, M, 0.9890, 0.0070, 0.0070, 1.2120, 0.0540, 0.7940
2015/11/23, 00:24:39.341, 350.8120, 350.813, 1.3600, T, 0.5400, M, 0.5480, 0.3260, 0.3260, 0.5240, -0.0600, 0.2970
2015/11/23, 00:24:49.341, 351.4370, 351.436, 0.4000, B, 2.0100, M, 0.0660, 0.0930, 0.0930, -0.0480, -0.0010, 0.0580
2015/11/23, 00:24:59.341, 350.5580, 350.558, 0.0800, B, 0.3200, M, -0.0250, -0.0870, -0.0870, 0.2160, -0.0270, 0.9360
2015/11/23, 00:25:09.341, 351.3250, 351.329, 0.9400, B, 4.0300, M, 0.6350, -0.2220, -0.2220, -0.1790, -0.1760, -0.1120
2015/11/23, 00:25:19.341, 350.1910, 350.192, 0.5600, B, 2.8300, M, 0.9970, 0.2070, 0.2070, 0.1990, -0.2890, 0.3540
2015/11/23, 00:25:29.341, 350.1300, 350.131, 0.7600, T, 4.2700, M, 1.4030, -0.1180, -0.1180, -0.0070, -0.4530, 1.2470
2015/11/23, 00:25:39.342, 351.9800, 351.981, 0.5000, B, 1.4400, M, 0.5130, 0.0060, 0.0060, -0.2260, -0.0360, -0.0480
2015/11/23, 00:25:49.342, 352.0270, 352.024, 0.5700, T, 0.9200, P, -0.3160, 0.3520, 0.3520, 0.0930, 0.0910, -0.1070
2015/11/23, 00:25:59.342, 350.7940, 350.791, 0.3700, T, 0.8300, M, -0.3070, 0.4830, 0.4830, 0.3200, 0.1980, 0.7830
2015/11/23, 00:26:09.342, 349.5920, 349.591, 0.9800, T, 1.9300, M, 0.0260, 0.1320, 0.1320, 0.0170, 0.2360, 0.6460
2015/11/23, 00:26:19.342, 349.7990, 349.799, 0.0500, B, 2.9400, M, 0.5150, -0.0560, -0.0560, -0.2050, 0.0950, 0.3210
2015/11/23, 00:26:29.342, 350.3080, 350.308, 0.1700, T, 1.0000, M, 0.2200, -0.2310, -0.2310, -0.1670, -0.5020, 0.4010
2015/11/23, 00:26:39.342, 350.7040, 350.708, 0.4400, T, 1.1400, M, 0.1460, -0.4120, -0.4120, -0.0340, -0.0840, 0.5650
2015/11/23, 00:26:49.342, 351.8900, 351.890, 3.3000, B, 0.2000, M, -0.4000, 0.0060, 0.0060, -0.2640, 0.4590, -0.5300
2015/11/23, 00:26:59.342, 352.3480, 352.350, 3.0000, B, 1.8300, M, 0.0730, 0.2880, 0.2880, -0.1910, -0.0600, -0.3570
2015/11/23, 00:27:09.342, 350.4500, 350.450, 0.5600, B, 1.1700, M, 0.4030, 0.5350, 0.5350, 0.1480, -0.0720, 0.8250
2015/11/23, 00:27:19.342, 350.4070, 350.407, 0.5600, B, 3.1200, M, 0.4660, 0.4900, 0.4900, -0.0160, 0.0650, 0.6410
2015/11/23, 00:27:29.342, 349.4210, 349.419, 1.7900, T, 0.8600, P, -0.6420, 0.3940, 0.3940, 0.0450, 0.2520, -0.3940
2015/11/23, 00:27:39.342, 348.3080, 348.304, 1.1600, T, 0.1900, M, -0.3270, 0.4420, 0.4420, -0.1790, 0.1210, -0.9630
2015/11/23, 00:27:49.342, 348.8000, 348.798, 0.1400, T, 0.2200, P, -0.0270, 0.1840, 0.1840, 0.1500, 0.1750, -0.5330
2015/11/23, 00:27:59.342, 348.9440, 348.945, 0.0700, B, 1.2700, P, -0.3970, 0.2650, 0.2650, 0.1400, 0.2690, -0.1740
2015/11/23, 00:28:09.342, 350.7870, 350.789, 0.1100, T, 0.0600, P, -0.4260, 0.2050, 0.2050, 0.0530, 0.1240, -0.2470
2015/11/23, 00:28:19.342, 350.9670, 350.964, 0.7500, T, 0.2700, M, -0.5020, 0.3830, 0.3830, 0.1610, 0.2820, -0.7460
2015/11/23, 00:28:29.343, 351.7920, 351.794, 0.6900, B, 1.2400, M, 0.1600, 0.3410, 0.3410, 0.4480, -0.2210, 0.4120
2015/11/23, 00:28:39.343, 351.4160, 351.416, 1.6100, B, 2.4100, M, 0.8200, 0.1670, 0.1670, -0.0140, 0.1620, 0.5030
2015/11/23, 00:28:49.343, 350.1730, 350.170, 0.2500, B, 1.7900, M, 0.2220, 0.4080, 0.4080, -0.2820, 0.3440, -0.2950
2015/11/23, 00:28:59.343, 350.0250, 350.023, 0.4300, T, 1.4500, P, -0.8610, 0.1590, 0.1590, 0.0900, -0.1200, -0.0090
2015/11/23, 00:29:09.343, 350.0880, 350.089, 0.6300, T, 0.4400, P, -0.7310, -0.0730, -0.0730, 0.1360, -0.0320, 0.8310
2015/11/23, 00:29:19.343, 351.0530, 351.053, 1.3400, B, 0.0700, M, -0.6450, 0.2120, 0.2120, -0.1580, 0.0150, 0.4200
2015/11/23, 00:29:29.343, 352.6170, 352.617, 0.4100, B, 3.3100, M, 0.1880, 0.2280, 0.2280, -0.0920, -0.0970, 1.6670
2015/11/23, 00:29:39.343, 350.4080, 350.409, 0.2400, B, 1.7900, P, -1.1940, 0.3810, 0.3810, -0.3720, -0.2090, -1.1000
2015/11/23, 00:29:49.343, 351.1170, 351.118, 1.7200, B, 0.9600, P, -0.2440, 0.0380, 0.0380, 0.0630, 0.3100, -0.1000
2015/11/23, 00:29:59.343, 350.9200, 350.920, 1.4300, B, 0.4300, M, 0.5460, 0.1700, 0.1700, 0.1590, 0.5130, 0.5800
2015/11/23, 00:30:09.343, 351.6480, 351.649, 1.8100, B, 2.8900, M, 0.6790, 0.1990, 0.1990, -0.1720, 0.0960, 0.6540
2015/11/23, 00:30:19.343, 351.5450, 351.543, 1.6100, B, 1.5700, M, 0.2340, 0.1880, 0.1880, -0.1360, 0.3860, 0.0520
2015/11/23, 00:30:29.343, 351.3920, 351.394, 1.4900, B, 5.3800, M, 0.6150, 0.1770, 0.1770, -0.3170, 0.0470, 0.2280
2015/11/23, 00:30:39.343, 350.7290, 350.729, 0.7400, B, 1.5200, M, 0.2800, -0.2340, -0.2340, -0.0680, 0.0300, 0.2060
2015/11/23, 00:30:49.343, 350.6230, 350.620, 0.0600, T, 3.5100, M, 1.0590, -0.4110, -0.4110, 0.0310, 0.1050, 0.6180
2015/11/23, 00:30:59.343, 351.7820, 351.779, 0.7600, B, 2.0300, M, 0.5100, -0.0690, -0.0690, -0.1310, 0.2950, -0.1510
2015/11/23, 00:31:09.343, 351.8630, 351.863, 1.1200, T, 3.6500, M, 0.3990, 0.0830, 0.0830, -0.6790, -0.1540, 0.1650
2015/11/23, 00:31:19.343, 351.9530, 351.950, 1.6200, T, 2.3400, M, 0.2150, -0.3890, -0.3890, -0.7180, 0.1100, -0.6430
2015/11/23, 00:31:29.344, 351.8390, 351.838, 1.2100, T, 2.9400, M, 0.6370, -0.2030, -0.2030, -0.5840, 0.1490, -0.4260
2015/11/23, 00:31:39.344, 350.8580, 350.855, 0.7600, T, 2.6600, M, 0.5530, -0.3280, -0.3280, -0.5080, 0.3780, -0.1930
2015/11/23, 00:31:49.344, 352.0310, 352.029, 0.8300, B, 2.8200, M, 0.1810, -0.5420, -0.5420, -0.3890, 0.0820, -0.8470
2015/11/23, 00:31:59.344, 352.4330, 352.434, 0.3200, B, 2.4100, M, -0.1930, -0.1550, -0.1550, -0.4560, 0.0710, -0.5040
2015/11/23, 00:32:09.344, 352.4230, 352.423, 1.6900, B, 0.1000, M, -0.2670, -0.1370, -0.1370, -0.2640, 0.2530, -1.0520
2015/11/23, 00:32:19.344, 350.6730, 350.670, 0.4900, B, 1.0500, P, -0.1170, 0.6420, 0.6420, 0.1420, 0.4600, -0.9370
2015/11/23, 00:32:29.344, 352.8300, 352.833, 2.5800, B, 3.3700, M, 0.9190, 0.6090, 0.6090, 0.4240, 0.1020, 0.2930
2015/11/23, 00:32:39.344, 352.6620, 352.662, 3.3900, B, 4.1100, M, 1.2600, 0.4480, 0.4480, -0.0940, 0.0870, 0.7350
2015/11/23, 00:32:49.344, 348.5260, 348.524, 0.3400, B, 0.5200, M, 0.1060, 0.4390, 0.4390, -0.6680, -0.0940, -0.7940
2015/11/23, 00:32:59.344, 348.2100, 348.212, 0.9400, T, 0.2300, P, -0.2230, -0.0760, -0.0760, 0.0790, -0.3450, -0.0710
2015/11/23, 00:33:09.344, 349.7660, 349.766, 0.5600, T, 1.1300, P, -0.5530, -0.4940, -0.4940, 0.4430, -0.2610, 0.3680
2015/11/23, 00:33:19.344, 349.9300, 349.930, 0.8200, T, 1.3200, P, -0.6750, -0.2820, -0.2820, 0.5650, 0.0230, 0.2930
2015/11/23, 00:33:29.344, 347.7340, 347.734, 0.2000, B, 4.1500, M, -0.2660, 0.6370, 0.6370, -0.0240, 0.2110, 0.7270
2015/11/23, 00:33:39.344, 348.0410, 348.041, 0.6400, B, 0.5700, M, -0.3190, 0.3250, 0.3250, -0.0630, -0.0970, 0.2140
2015/11/23, 00:33:49.344, 348.5000, 348.501, 0.5000, B, 0.7200, P, -0.3310, 0.5430, 0.5430, -0.2320, -0.2930, -0.4550